Showing default

JILIN-01-04, 43022

Orbit data source: Space-Track

JILIN-01-04, 43022 is a payload satellite owned by Changguang WJ (CN) in SSO that was launched on Tue, 21 Nov 2017 UTC via a CHANG ZHENG 6 launch vehicle from the Taiyaun Space Center, China (TSC). Payload-class satellites include a variety of spacecraft equipped with specific instruments for various scientific and technological missions. These include communications satellites like Starlink; space stations such as the ISS; scientific satellites like the Hubble; Earth observation satellites from companies like Planet Labs, Umbra, and HawkEye 360; GPS; miniature CubeSats for education and research; and military/defense satellites.

Loading next visibility...
Identifier
43022, 2017-074A
Orbit
SSO
Last TLE update
7 hours ago
Origin
Manufacturer
HARB/CIOMP
Mission
Operational Commercial Imaging
Bus & Motor
JL-1, Unknown motor
Mass
95 kg wet, 95 kg dry
Launch date (UTC)
2017-11-21 (8 years ago)
Launch vehicle
CHANG ZHENG 6
Launch site
Taiyaun Space Center, China (TSC)
Object type
Payload
Rocket body
Debris
Shape & HBR
Box + 2 Pan, 1.5 m
Radar Cross Section
2.000 m², Medium (>0.1 m² and < 1m²)

Expand to show TLE details & history

TLE from 7 hours ago
0 JILIN-01-04
1 43022U 17074A   25181.82265443  .00006824  00000-0  22174-3 0  9990
2 43022  97.4791 280.2101 0005464  31.7172 328.4398 15.32233913420290
Epoch: 2025-06-30T19:44Z
TLE epoch observation values (Epoch: 2025-06-30T19:44:37.342Z)
Latitude
-0.00002°
Longitude
64.92757°
Altitude
469.066 km
Speed
7.633 km/s
True Right ascension
18h 40m 50s
True Declination
0° 00' 00"
Sunlit
Object was in full shadow at epoch
Visualization orbit readout
Latitude
48.01303°
Longitude
-106.44362°
Altitude
477.408 km
Speed
7.631 km/s
Apparent Right ascension
04h 38m 04s
Apparent Declination
7° 36' 52"
Sunlit
Object is in daylight
Visualization observer readout
Local Sidereal Time
14:12:15
Azimuth
316.153° NNW
Elevation
-31.764°
Doppler factor
1
Orbital elements
Apogee altitude
469.841 km
Perigee altitude
462.362 km
Semi-major axis
6,844.239 km
Eccentricity
0.00055
Inclination
97.4791°
RAAN
280.2101°
Arg. of periapsis
31.7172°
True anomaly
Unknown
Mean anomaly
328.4398°
Eccentric anomaly
Unknown
Mean motion
3.83315 °/min
Orbital period
93.92 mins
BSTAR
0.00022174
Loading maneuver chart data...
Loading SW <> Apogee altitude chart data...
Loading historical data...
Loading historical data...
Loading historical data...
Loading historical data...
Loading historical data...
Loading historical data...
Loading historical data...
Other satellites on launch #74 in the year 2017 (2017-11-21 UTC)

JILIN-01-04 Visibility forecast

Observer location: undefined°, undefined°

Span
Click to sort rows by Start time (UTC) header in descending order
Start Az.
Max El. time (UTC)
Max El. Az.
Max El.
End time (UTC)
End Az.
6 mins2025-07-01 06:50:05.474Z180.807° SSW2025-07-01 06:53:05.474Z245.065° WSW39.43°2025-07-01 06:56:05.474Z336.949° NNW
4 mins2025-07-01 19:50:05.474Z337.462° NNW2025-07-01 19:51:05.474Z302.434° NW33.89°2025-07-01 19:54:05.474Z217.194° SW
|